Hourly Weather Roundup
Issued by NWS Central Illinois

Home | Current Version | Previous Version | Graphics & Text | Print | Product List | Glossary On
Versions: 1 2 3 4 5 6 7 8 9 10 11 12 13 14 15 16 17 18 19 20 21 22 23 24 25 26 27 28 29 30 31 32 33 34 35 36 37 38 39 40 41 42 43 44 45 46 47 48 49 50
000
NZUS43 KILX 290310
HWRILX

AREA WEATHER ROUNDUP
NATIONAL WEATHER SERVICE, LINCOLN IL
1000 PM CDT SAT MAY 28 2016


CITY           SKY/WX    TMP DP  RH WIND       PRES   REMARKS
BLOOMINGTON    LGT RAIN  64  63  94 NW6       30.01S FOG
CHAMPAIGN      CLOUDY    73  65  75 S13G25    29.99R
DANVILLE       RAIN      73  66  79 S9        29.97R
DECATUR        CLOUDY    74  67  78 S10       29.97R
EFFINGHAM      CLOUDY    74  67  77 SE10      30.03R
FLORA          PTCLDY    73  69  86 S6        30.02R
GALESBURG      CLOUDY    68  65  88 SW6       29.92R
JACKSONVILLE   MOCLDY    73  65  76 SW10      29.95R
LACON          CLOUDY    67  62  84 SW8       29.93R
LAWRENCEVILLE  PTCLDY    74  67  78 S8        30.03R
LITCHFIELD     PTCLDY    73  65  76 S13       29.99R
$$


CITY           SKY/WX    TMP DP  RH WIND       PRES   REMARKS
LINCOLN        CLOUDY    71  60  67 NE5       29.95R
MACOMB         MOCLDY    71  63  75 SW7       29.95R
MATTOON        MOCLDY    74  65  73 S9        29.99R
MT CARMEL AP   PTCLDY    73  66  79 S6        30.03R
OLNEY-NOBLE AP MOCLDY    72  68  88 S7        30.03R
PARIS          CLOUDY    72  67  84 S7        30.01S
PEORIA         CLOUDY    67  62  84 S5        29.95R
PONTIAC        CLOUDY    70  58  67 SW20G28   29.98S
RANTOUL        PTCLDY    75  68  78 S9        29.99R
ROBINSON       MOCLDY    70  66  88 S6        30.03S
SPRINGFIELD    CLOUDY    76  67  73 S13       29.95R
TAYLORVILLE    CLOUDY    73  67  79 S12G17    29.97R
$$

...REGIONAL REPORTS...


CITY           SKY/WX    TMP DP  RH WIND       PRES   REMARKS
CHICAGO O`HARE MOCLDY    71  59  65 W16       29.95R
KANKAKEE       PTCLDY    73  65  76 S13       29.97R
MOLINE         MOCLDY    72  60  66 SW9       29.89R
MOUNT STERLING MOCLDY    71  63  78 SW6       29.95R
MOUNT VERNON   CLOUDY    73  64  73 S6        30.04R
PITTSFIELD     CLOUDY    70  68  93 S5        29.97R
QUINCY         CLOUDY    72  60  66 W9        29.96R
ROCKFORD       CLOUDY    69  63  81 SE7       29.92R
$$


CITY           SKY/WX    TMP DP  RH WIND       PRES   REMARKS
BURLINGTON     CLOUDY    71  61  70 SW10      29.92R
CEDAR RAPIDS   CLEAR     66  62  87 S9        29.87R
DES MOINES     PTCLDY    68  56  65 SW10      29.87R
KIRKSVILLE     CLEAR     66  58  75 S5        29.97R
OTTUMWA        PTCLDY    68  59  73 S9        29.91R
ST LOUIS       CLOUDY    79  65  62 SW10G21   29.98R HX  81
$$


CITY           SKY/WX    TMP DP  RH WIND       PRES   REMARKS
TERRE HAUTE    PTCLDY    72  66  81 S7        30.03R
EVANSVILLE     PTCLDY    74  67  78 SE5       30.05R
INDIANAPOLIS   CLOUDY    73  65  75 S9        30.03R
LAFAYETTE      PTCLDY    72  65  78 S7        30.00R
MADISON        CLOUDY    65  63  93 CALM      29.87R
MILWAUKEE      LGT RAIN  67  62  84 S14       29.93R
$$





USA.gov is the U.S. government's official web portal to all federal, state and local government web resources and services.